O/OREOS (USA 219)

Last updated on Thu Nov 06 2025 00:03:08 GMT+0000 (Coordinated Universal Time)

1 37224U 10062C 25309.15984020 .00003200 00000+0 31811-3 0 9996 2 37224 71.9718 227.3183 0013404 140.3865 219.8287 14.92355438 83202
UTC large
Height (km)
Speed (km/s)
/
Latitude / Longitude
Inclination (degrees)
Orbital Period (minutes)
Azimuth
Elevation
Range (km)
Doppler Factor

Next 0 passes for location: London (51.5072 / 0.1276)

Sorry there are no passes over London.